Probability
0 0 0 0 0 0 0 0 0 0 0 0 0 0 0 0 0 0 0 0 0 0 0 0 0 0 0 0 0 0 0 0 0 0 0 0 0 0 0 0 0 0 0
0 0 0 0 0 0 0 0 0 0 0 0 0 0 0 0 0 0 0 0 0 0 0 0 0 0 0 0 0 0 0 0 0 0 0 0 0 0 0 0 0 0 0
0 0 0 0 0 0 0 0 0 0 0 0 0 0 0 0 0 0 0 0 0 0 0 0 0 0 0 0 0 0 0 0 0 0 0 0 0 0 0 0 0 0 0
0 0 0 0 0 0 0 0 0 0 0 0 0 0 0 0 0 0 0 0 0 0 0 0 0 0 0 0 0 0 0 0 0 0 0 0 0 0 0 0 0 0 0
0 0 0 0 0 0 0 0 0 0 0 0 0 0 0 0 0 0 0 0 0 0 0 0 0 0 0 0 0 0 0 0 0 0 0 0 0 0 0 0 0 0 0
0 0 0 0 0 0 0 0 0 0 0 0 0 0 0 0 0 0 0 0 0 0 0 0 0 0 0 0 0 0 0 0 0 0 0 0 0 0 0 0 0 0 0
0 0 0 0 0 0 0 0 0 0 0 0 0 0 0 0 0 0 0 0 0 0 0 0 0 0 0 0 0 0 0 0 0 0 0 0 0 0 0 0 0 0 0
0 0 0 0 0 0 0 0 0 0 0 0 0 0 0 0 0 0 0 0 0 0 0 0 0 0 0 0 0 0 0 0 0 0 0 0 0 0 0 0 0 0 0
0 0 0 0 0 0 0 0 0 0 0 0 0 0 0 0 0 0 0 0 0 0 0 0 0 0 0 0 0 0 0 0 0 0 0 0 0 0 0 0 0 0 0
0 0 0 0 0 0 0 0 0 0 0 0 0 0 0 0 0 0 0 0 0 0 0 0 0 0 0 0 0 0 0 0 0 0 0 0 0 0 0 0 0 0 0
0 0 0 0 0 0 0 0 0 0 0 0 0 0 0 0 0 0 0 0 0 0 0 0 0 0 0 0 0 0 0 0 0 0 0 0 0 0 0 0 0 0 0
0 0 0 0 0 0 0 0 0 0 0 0 0 0 0 0 0 0 0 0 0 0 0 0 0 0 0 0 0 0 0 0 0 0 0 0 0 0 0 0 0 0 0
0 0 0 0 0 0 0 0 0 0 0 0 0 0 0 0 0 0 0 0 0 0 0 0 0 0 0 0 0 0 0 0 0 0 0 0 0 0 0 0 0 0 0
0 0 0 0 0 0 0 0 0 0 0 0 0 0 0 0 0 0 0 0 0 0 0 0 0 0 0 0 0 0 0 0 0 0 0 0 0 0 0 0 0 0 0
0 0 0 0 0 0 0 0 0 0 0 0 0 0 0 0 0 0 0 0 0 0 0 0 0 0 0 0 0 0 0 0 0 0 0 0 0 0 0 0 0 0 0
0 0 0 0 0 0 0 0 0 0 0 0 0 0 0 0 0 0 0 0 0 0 0 0 0 0 0 0 0 0 0 0 0 0 0 0 0 0 0 0 0 0 0
0 0 0 0 0 0 0 0 0 0 0 0 0 0 0 0 0 0 0 0 0 0 0 0 0 0 0 0 0 0 0 0 0 0 0 0 0 0 0 0 0 0 0
0 0 0 0 0 0 0 0 0 0 0 0 0 0 0 0 0 0 0 0 0 0 0 0 0 0 0 0 0 0 0 0 0 0 0 0 0 0 0 0 0 0 0
0 0 0 0 0 0 0 0 0 0 0 0 0 0 0 0 0 0 0 0 0 0 0 0 0 0 0 0 0 0 0 0 0 0 0 0 0 0 0 0 0 0 0
0 0 0 0 0 0 0 0 0 0 0 0 0 0 0 0 0 0 0 0 0 0 0 0 0 0 0 0 0 0 0 0 0 0 0 0 0 0 0 0 0 0 0
0 0 0 0 0 0 0 0 0 0 0 0 0 0 0 0 0 0 0 0 0 0 0 0 0 0 0 0 0 0 0 0 0 0 0 0 0 0 0 0 0 0 0
0 0 0 0 0 0 0 0 0 0 0 0 0 0 0 0 0 0 0 0 0 0 0 0 0 0 0 0 0 0 0 0 0 0 0 0 0 0 0 0 0 0 0
0 0 0 0 0 0 0 0 0 0 0 0 0 0 0 0 0 0 0 0 0 0 0 0 0 0 0 0 0 0 0 0 0 0 0 0 0 0 0 0 0 0 0
0 0 0 0 0 0 0 0 0 0 0 0 0 0 0 0 0 0 0 0 0 0 0 0 0 0 0 0 0 0 0 0 0 0 0 0 0 0 0 0 0 0 0
0 0 0 0 0 0 0 0 0 0 0 0 0 0 0 1 1 0 0 0 0 0 0 0 0 0 0 0 0 0 0 0 0 0 0 0 0 0 0 0 0 0 0
0 0 0 0 0 0 0 0 0 0 0 0 0 0 1 2 2 1 0 0 0 0 0 0 0 0 0 0 0 0 0 0 0 0 0 0 0 0 0 0 0 0 0
Wind_Speed
9 10 11 10 10 9 10 10 10 11 12 14 14 14 14 14 14 14 14 15 16 16 16 17 17 17 18 18 18 18 19 19 18 18 19 19 19 19 18 16 15 16 19
12 12 12 10 10 10 10 10 10 11 12 13 14 14 13 13 14 14 14 15 15 16 16 16 16 17 17 17 17 17 17 17 16 14 14 16 17 18 18 18 17 14 19
13 12 12 9 10 10 9 9 10 10 12 13 14 14 13 13 13 14 14 14 15 16 16 16 16 16 16 16 16 17 17 16 14 10 9 12 15 17 18 18 18 18 18
13 11 11 11 11 10 10 9 9 10 11 13 14 14 13 13 13 13 13 14 14 15 16 16 16 15 15 16 16 16 16 15 11 8 10 12 13 17 18 18 18 17 17
12 11 11 10 11 11 10 10 10 10 11 12 13 14 13 13 12 12 13 13 14 15 15 15 15 15 15 15 15 15 15 13 9 10 11 12 12 17 18 18 18 17 16
12 11 12 10 11 11 10 10 10 10 11 12 12 13 13 12 12 12 12 13 13 14 14 14 14 15 14 14 14 14 13 9 8 10 11 11 11 15 16 16 16 16 16
12 11 12 10 10 10 10 10 10 10 10 11 12 13 12 12 11 11 12 12 12 13 13 13 13 14 13 13 13 13 12 8 9 10 10 10 12 15 15 15 15 15 15
12 11 11 10 8 9 9 9 9 9 10 11 12 12 12 11 11 11 11 11 12 12 12 12 13 12 12 12 12 11 10 6 9 9 9 10 11 13 13 13 14 14 14
11 10 10 10 10 8 7 7 8 8 8 9 10 11 10 10 10 10 9 10 10 11 11 11 12 12 12 11 11 11 9 6 7 7 7 7 10 11 12 12 12 12 12
10 10 10 9 9 9 9 8 7 8 8 9 9 10 10 10 9 8 8 9 9 10 10 11 11 11 11 10 10 9 6 2 6 6 5 7 9 10 11 10 10 10 10
9 9 9 9 9 8 8 8 8 8 8 9 9 10 8 7 8 6 7 8 9 9 10 10 10 10 9 9 8 5 2 3 5 4 5 7 8 9 9 9 8 8 9
13 11 9 10 9 9 7 7 6 6 7 7 7 8 5 5 5 5 8 8 8 8 9 9 9 7 4 4 5 2 2 3 3 3 5 6 7 7 7 7 6 7 7
14 12 11 10 9 9 6 6 4 4 5 6 7 7 5 5 5 4 4 5 6 6 5 6 5 3 2 2 2 2 2 1 1 2 4 5 5 5 5 5 5 5 5
14 14 12 11 10 9 7 6 5 5 4 5 6 7 6 4 4 4 3 4 4 3 4 3 2 3 3 3 2 2 2 1 1 1 3 3 3 4 5 5 5 5 4
14 14 14 12 12 10 8 6 6 6 6 6 5 7 7 5 5 5 4 4 4 3 4 3 3 4 3 3 2 3 3 2 2 3 2 2 2 4 5 6 6 6 5
15 15 14 14 13 11 9 8 7 6 6 6 6 7 8 6 5 5 5 5 4 4 3 3 4 4 3 3 3 3 3 4 4 4 4 4 4 4 6 7 8 8 8
15 15 15 14 13 13 11 10 7 7 7 6 6 8 8 7 7 6 5 5 5 4 5 4 4 3 3 3 4 4 4 5 5 6 6 5 5 6 7 9 10 10 10
14 15 15 12 13 14 12 10 8 7 8 7 6 7 9 9 8 7 6 6 6 5 5 5 5 5 5 5 5 5 5 5 7 7 7 7 6 6 8 11 12 12 13
15 15 15 15 15 14 13 10 9 8 8 7 7 7 8 10 10 8 6 6 7 5 5 5 5 5 6 6 5 5 5 6 7 7 9 10 9 9 8 9 11 12 14
15 15 16 16 16 14 11 9 8 9 9 8 8 9 10 10 11 9 6 7 7 6 6 7 7 6 5 5 4 5 6 6 6 8 10 9 9 11 11 10 9 10 14
14 16 17 17 16 13 10 10 10 10 9 9 9 11 12 11 12 11 8 8 9 8 9 9 6 7 6 4 3 5 6 9 10 10 9 10 11 11 11 11 10 9 8
13 15 17 17 17 16 13 12 10 10 9 9 9 11 13 12 12 10 11 9 10 8 9 10 9 5 5 6 5 4 4 6 9 11 10 10 12 9 11 12 11 11 9
10 12 12 16 16 17 16 11 8 7 7 7 9 9 12 13 13 12 13 11 11 10 10 12 12 10 8 8 7 6 5 7 4 4 9 10 10 9 10 9 12 12 12
7 8 11 12 13 14 14 13 14 11 12 12 9 8 9 11 12 12 12 12 11 10 11 11 12 11 9 8 7 8 8 3 3 4 4 6 9 11 12 10 11 13 13
2 4 6 8 10 11 13 14 14 13 11 8 7 8 8 8 10 11 11 11 11 10 11 10 10 11 9 9 7 6 8 7 7 7 9 6 5 8 10 11 10 11 13
2 2 3 5 6 8 10 11 12 12 11 8 7 6 5 5 6 9 9 9 10 9 10 10 11 12 11 11 9 7 6 6 7 9 11 9 9 7 8 9 10 11 11
Wind_Direction
154 147 134 135 127 118 112 111 108 107 106 103 99 94 91 88 86 84 82 81 79 78 76 74 73 72 71 71 70 69 69 69 71 73 74 74 74 74 70 66 71 72 72
145 145 134 136 130 123 116 115 114 111 110 107 103 99 95 92 90 88 85 84 83 82 80 79 77 76 75 75 74 73 73 72 71 69 79 80 76 75 74 70 69 74 74
143 143 141 135 132 127 121 119 118 115 113 112 108 104 99 96 93 90 88 87 86 86 84 83 82 81 79 78 77 76 75 73 69 62 79 82 80 77 77 75 76 76 76
144 145 143 133 135 131 126 121 118 117 117 116 113 108 103 100 96 92 90 89 88 88 87 86 85 84 83 82 80 79 76 72 63 62 75 78 79 77 76 75 75 75 76
146 145 135 138 139 136 131 124 118 116 118 118 116 112 107 103 99 94 91 91 90 89 90 90 89 87 86 85 83 81 78 75 69 76 77 77 78 77 76 74 73 72 72
148 146 141 145 143 140 136 130 124 119 119 119 117 115 110 107 102 98 94 92 91 91 92 92 92 90 89 88 85 82 78 71 82 78 77 77 80 82 81 79 77 75 74
151 149 147 147 144 143 141 136 131 127 123 121 119 117 114 111 108 104 99 96 95 94 95 94 94 92 90 88 87 83 76 61 77 79 76 76 78 81 82 81 80 78 77
154 152 149 144 143 143 142 140 135 130 128 126 124 123 120 117 113 108 104 101 99 99 98 97 97 95 94 91 88 82 70 62 86 81 79 79 81 83 83 82 81 80 79
159 158 158 157 153 145 139 136 131 128 126 128 128 124 118 114 112 107 105 105 103 104 103 101 100 100 98 95 91 86 73 47 84 82 79 79 84 86 86 86 85 84 84
169 170 166 165 163 160 155 138 130 126 123 119 117 116 113 112 108 105 113 107 108 107 106 105 103 101 99 96 94 90 81 89 84 85 80 85 86 87 87 87 88 88 87
180 181 176 173 171 167 162 151 146 134 126 128 124 123 136 140 134 131 112 105 108 109 108 108 105 102 103 100 94 93 117 91 90 81 83 89 93 93 91 91 92 93 93
188 188 186 184 178 174 166 165 166 162 158 163 155 155 156 145 134 128 106 98 98 103 110 107 107 115 128 124 118 153 118 109 106 97 96 101 100 100 100 101 101 101 103
191 190 193 191 186 183 175 174 171 168 168 171 168 166 159 153 146 150 141 134 132 134 129 125 137 143 138 135 147 145 129 139 113 112 110 108 113 117 121 122 121 120 120
196 196 196 195 193 193 188 183 180 178 177 176 175 176 171 168 168 165 166 160 160 159 153 158 152 148 148 151 160 161 170 189 174 143 116 117 144 154 155 153 150 148 145
202 201 199 198 198 196 195 193 191 190 189 183 180 184 188 181 178 176 174 176 177 171 175 175 173 167 170 171 180 192 194 199 201 203 167 160 196 198 191 184 181 179 179
206 204 201 201 201 199 200 201 198 197 192 191 191 193 194 193 185 182 182 186 185 185 185 188 185 184 187 192 196 206 218 217 218 223 220 197 213 231 220 211 206 202 200
207 206 205 205 204 204 205 206 205 201 198 197 197 198 197 199 193 189 187 191 189 184 182 185 185 194 198 205 210 213 225 230 230 229 230 231 221 223 232 227 221 218 214
209 209 208 204 207 208 207 207 206 204 202 203 200 198 202 202 199 194 194 197 187 182 188 192 192 198 205 212 217 216 223 227 231 234 234 233 235 230 226 230 230 227 225
215 211 210 208 209 210 209 209 208 205 205 205 201 199 201 202 201 201 202 196 185 187 194 194 203 212 214 217 223 227 232 235 234 235 236 235 235 236 237 229 232 235 234
220 217 214 212 213 211 209 209 208 209 209 207 204 203 200 201 201 202 203 195 185 191 198 201 206 212 225 220 222 238 243 243 243 242 242 239 238 237 238 238 234 233 236
220 219 216 214 212 209 207 207 210 213 210 209 207 206 204 203 200 201 200 197 194 202 206 204 201 208 217 200 217 246 246 237 241 240 238 240 239 237 237 237 237 237 235
218 218 218 217 213 210 211 212 216 219 216 212 207 209 208 206 203 203 204 201 200 206 208 205 199 202 205 189 205 227 261 247 231 231 231 235 241 238 237 235 236 235 236
222 219 217 217 216 214 213 213 211 216 218 212 212 212 211 210 208 208 210 207 206 206 210 208 204 207 213 205 213 211 226 255 271 226 232 235 237 238 240 238 237 236 237
234 227 223 219 217 215 212 213 212 213 218 221 220 216 210 210 214 214 215 214 212 211 217 215 210 216 218 214 212 229 241 265 260 279 240 237 239 239 239 238 239 239 237
257 224 214 211 212 211 210 213 215 221 226 227 221 219 215 211 216 220 220 219 219 218 221 219 212 216 219 225 213 210 226 236 239 252 269 260 239 237 237 237 237 239 236
70 117 162 179 192 199 204 210 215 219 221 221 219 217 214 212 216 221 223 224 225 224 224 222 219 217 220 228 227 214 209 215 218 227 251 262 264 253 235 231 235 237 236